Location: *
(18.5200°S, 46.4500°E)
Time: 23:56:27
(UTC+00:00)

OAO 2 Rocket - Pass Details

Date: 19 July 2019
Orbit: 676 x 746 km, 35.0° (Epoch: 18 August)

Event Time Altitude Azimuth Distance (km) Brightness Sun altitude
Rises 15:01:52 0° 288° (WNW) 3,106 9.4 -6.8°
Reaches altitude 10° 15:04:22 10° 283° (WNW) 2,178 7.6 -7.3°
Maximum altitude 15:09:18 48° 208° (SSW) 917 4.0 -8.4°
Drops below altitude 10° 15:14:09 10° 134° (SE) 2,145 5.3 -9.5°
Enters shadow 15:14:16 - 133° (SE) 2,189 5.3 -9.6°
